Regional Weather Roundup
Issued by NWS Wakefield, VA

Home | Current Version | Previous Version | Text Only | Print | Product List | Glossary On
Versions: 1 2 3 4 5 6 7 8 9 10 11 12 13 14 15 16 17 18 19 20 21 22 23 24 25 26 27 28 29 30 31 32 33 34 35 36 37 38 39 40 41 42 43 44 45 46 47 48 49 50
000
ASUS41 KAKQ 231715
RWRAKQ

REGIONAL WEATHER ROUNDUP
NATIONAL WEATHER SERVICE WAKEFIELD VA
100 PM EDT SAT JUL 23 2016

Note: "fair" indicates few or no clouds below 12,000 feet with no
significant weather and/or obstructions to visibility. * = Denotes
station may not report precipitation (e.g., rain,snow,etc.),
thunder or fog.

VAZ042-051-052>054-056-231800-
NORTHERN VIRGINIA

CITY           SKY/WX    TMP DP  RH WIND       PRES   REMARKS
WASH NATIONAL  PTSUNNY   95  73  48 NE9       29.93F HX 104
DULLES         FAIR      93  69  45 NW9       29.95F HX  98
FORT BELVOIR   FAIR      96  70  43 NW7       29.93F HX 102
QUANTICO       FAIR      92  77  61 S7        29.95S HX 105
FREDERICKSBRG*   N/A     93  70  46 SW5       29.94F HX  99
STAFFORD*      FAIR      93  67  42 W5        30.00S HX  97
WARRENTON      FAIR      95  63  34 NW5       29.96F HX  96
CULPEPER*      FAIR      92  72  51 W5        29.97F HX 100
MANASSAS*      NOT AVBL
LEESBURG*      FAIR      93  77  59 NW3G18    29.97F HX 107
WINCHESTER     FAIR      91  70  49 W7        29.98F HX  97
FRONT ROYAL*   FAIR      90  68  48 SW3       29.97F
LURAY*         FAIR      90  68  48 SW3       30.00F
$$

VAZ048-049-060>072-079>083-231800-
CENTRAL AND SOUTH CENTRAL VIRGINIA

CITY           SKY/WX    TMP DP  RH WIND       PRES   REMARKS
RICHMOND       FAIR      91  72  53 S6        29.96F HX  98
CHESTERFIELD*  FAIR      93  66  40 NE6       29.98F HX  96
PETERSBURG*    FAIR      92  73  52 E6        29.98S HX 100
HANOVER          N/A     93  69  45 N5        29.98F HX  98
TAPPAHANNOCK*  FAIR      96  66  37 S5        29.96F HX  99
QUINTON*       FAIR      90  74  59 SW3       29.96S HX  99
CHARLOTTSVILLE FAIR      95  67  39 S5        29.98F HX  99
GORDONSVILLE*  FAIR      92  73  54 S6        29.97F HX 101
ORANGE*        NOT AVBL
LOUISA*        FAIR      97  73  46 CALM      29.97F HX 107
BUMPASS*       FAIR      90  72  54 CALM      29.98S HX  97
FARMVILLE*     FAIR      93  70  46 SE3       29.98S HX  99
CREWE*         FAIR      92  73  55 SE5       29.99S HX 100
FORT PICKETT*  FAIR      90  75  61 S6        29.99S HX 100
CHASE CITY*    FAIR      92  69  47 CALM      29.99F HX  97
CLARKSVILLE*   FAIR      90  73  58 CALM      29.99S HX  98
SOUTH HILL*    FAIR      91  73  54 S6        30.05S HX  99
LAWRENCEVILLE* FAIR      91  75  60 SW5       29.98F HX 102
EMPORIA*       FAIR      91  73  55 E5        29.99F HX 100
$$

VAZ088>098-231800-
SOUTHEAST VIRGINIA

CITY           SKY/WX    TMP DP  RH WIND       PRES   REMARKS
NORFOLK        FAIR      93  74  53 NE10      29.96F HX 103
VIRGINIA BEACH FAIR      98  73  44 CALM      29.96S HX 108
NORFOLK NAVAL  FAIR      94  74  52 NW8       29.98S HX 104
WEST POINT*    FAIR      91  72  53 CALM      29.97S HX  97
SALUDA*        FAIR      91  76  61 CALM      29.95S HX 104
NEWPORT NEWS   FAIR      91  77  63 SW9       29.97S HX 104
LANGLEY AFB    SUNNY     91  75  58 N8        29.96F HX 102
FORT EUSTIS    FAIR      91  77  63 S7        29.96S HX 104
WILLIAMSBURG*  FAIR      93  79  62 S6        29.98S HX 110
HR EXEC AP*    FAIR      93  75  55 W5        29.98F HX 104
FRANKLIN*      FAIR      90  75  62 S6        29.98S HX 100
US460-WAKEFLD  FAIR      91  73  55 VRB6      29.98S HX  99
$$

VAZ020-022-025-037-045-231800-
WEST CENTRAL AND SOUTHWEST VIRGINIA

CITY           SKY/WX    TMP DP  RH WIND       PRES   REMARKS
STAUNTON*      FAIR      87  68  52 CALM      30.04F
WAYNESBORO*    FAIR      88  66  48 E3        30.04F
HOT SPRINGS VA PTSUNNY   79  66  65 SW5       30.19F
LYNCHBURG      FAIR      91  69  48 VRB5      30.02F HX  96
DANVILLE       FAIR      90  72  55 SW5       30.00F HX  97
SOUTH BOSTON*  FAIR      92  71  48 E5        29.99F HX  99
MARTINSVILLE   FAIR      90  66  46 CALM      30.05F
ROANOKE        FAIR      92  64  39 CALM      30.04F
BLACKSBURG     FAIR      87  70  57 CALM      30.13F
DUBLIN*        FAIR      88  67  49 NE6       30.11F
MARION*        FAIR      89  67  48 CALM      30.15F
HILLSVILLE*    FAIR      83  67  58 E5        30.13F
RICHLANDS*     FAIR      85  68  57 CALM      30.13F
WISE*          CLOUDY    84  61  45 CALM      30.15S
ABINGDON*      FAIR      88  66  48 CALM      30.10F
$$

MDZ021>025-VAZ099-100-231800-
SOUTHERN MARYLAND AND THE DELMARVA PENINSULA

CITY           SKY/WX    TMP DP  RH WIND       PRES   REMARKS
PATUXENT RIVER MOSUNNY   94  70  45 VRB7      29.93F HX 100
BAY BRIDGE APT SUNNY     91  75  59 W5        29.92F HX 102
LEONARDTOWN    SUNNY     91  66  43 N3        29.95F
DOVER          MOSUNNY   93  77  59 SW13      29.89F HX 107
GEORGETOWN     SUNNY     93  70  46 VRB3      29.92F HX  99
EASTON         SUNNY     93  79  62 NW7       29.96F HX 110
CAMBRIDGE      SUNNY     90  70  51 W3        29.92F HX  95
SALISBURY      SUNNY     94  73  50 NW6       29.93S HX 103
OCEAN CITY     MOSUNNY   90  77  65 S8        29.92S HX 103
WALLOPS ISLAND FAIR      91  77  63 SW7       29.94S HX 104
ACCOMACK*      FAIR      91  75  59 CALM      29.95S HX 102
$$

NCZ012>017-030>032-231800-
NORTH CENTRAL AND EASTERN NORTH CAROLINA

CITY           SKY/WX    TMP DP  RH WIND       PRES   REMARKS
ROANOKE RAPIDS FAIR      88  77  70 SE6       29.99F HX 100
RALEIGH        MOSUNNY   90  73  57 W5        30.01S HX  98
ELIZABETH CITY SUNNY     89  75  63 S10       29.99S HX  99
AHOSKIE*       SUNNY     88  77  69 S7        29.99F HX 100
EDENTON*       SUNNY     90  75  61 SW5       30.00F HX 100
CURRITUCK*     SUNNY     91  76  61 S7        29.99S HX 102
KILL DEVIL HLS SUNNY     93  73  52 W6        29.99S HX 103
MANTEO           N/A     89  76  66 SW5       30.00S HX 100
CAPE HATTERAS  SUNNY     87  76  69 SW9       30.02S HX  97
TARBORO*       FAIR      91  78  65 SE3       30.01S HX 105
GOLDSBORO      MOSUNNY   91  79  67 S8        29.99S HX 108
WASHINGTON     MOSUNNY   89  76  65 S8        30.00S HX 100
GREENVILLE     MOSUNNY   91  79  66 S3        30.01F HX 107
NEW BERN       SUNNY     90  75  61 VRB7      30.01F HX 100
WILMINGTON     MOSUNNY   90  74  59 W9        30.01F HX  99
$$

VAZ048-231800-
ELSEWHERE

CITY           SKY/WX    TMP DP  RH WIND       PRES   REMARKS
HARRISBURG PA  MOSUNNY   93  69  45 NW6       29.89F HX  98
BALTIMORE      MOSUNNY   94  69  44 NW10G17   29.92F HX  99
ANNAPOLIS      MOSUNNY   92  75  57 VRB5      29.92F HX 103
ANDREWS AFB    FAIR      94  71  46 VRB7      29.93F HX 100
PHILADELPHIA   MOSUNNY   92  69  47 W12G21    29.89F HX  97
GREENSBORO     PTSUNNY   92  67  43 VRB3      30.02F HX  95
ROCKY MOUNT    MOSUNNY   90  77  65 CALM      30.00S HX 103
$$

VAZ100-231800-
MARINE

STATION/POSITION TIME  TEMP    WIND        PRES    WAVE   SWELL
                       AIR SEA DIR/SP/G            HT/PER HT/PER
                 (UTC) (F)     (DEG/KT/KT) (MB)    (FT/S) (FT/S)
BRANDYWINE LGT   1600   82     290/  3/  4   N/A
CAPE MAY NJ      1600   85 74  300/  5/  7 1012.8S
LEWES DE         1600   84 73   10/  5/  8 1013.2S
OCEAN-CITY-INLET 1600   79 68  190/  5/  8 1013.8F
WACHAPREAGUE VA  1600   89 83  190/  2/  4 1014.2S
THOMAS POINT MD  1700   88 83  270/  4/  5 1014.6F
GOOSES REEF MD   1600   87 84   20/  2/  2 1014.8F   1/ 3
COVE POINT MD    1600   85      80/  4/  5 1014.3F
SOLOMONS ISLAND  1600   92 83  270/  7/  8   N/A
BISHOPS HEAD MD  1600   87 86  220/  6/  6 1014.0F
PINEY POINT MD   1600          300/  6/  7   N/A
POTOMAC MD       1600   85 85  280/  4/  6 1013.0F   0
CAMBRIDGE MD     1600   87 85  320/  7/  9 1012.8F
LEWISETTA VA     1600   87 85   90/  4/  4 1013.7F
RAPPAHANNOCK LGT 1600          210/  8/  8 1015.2F
STINGRAY PT      1600   86 86  110/  4/  6 1014.9F   1
YORK RVR RNG VA  1600   84     190/  6/  6 1014.3F
YORKTOWN VA      1600   88 83  100/  3/  4 1014.4F
JAMESTOWN VA     1600   85 87  170/  2/  4   N/A     0
DOMINION TERM VA 1600   84     210/  1/  2 1015.1F
KIPTOPEKE VA     1600      83  220/  7/  8   N/A
CHES BAY BRIDGE  1600   84 78  300/  4/  5 1014.9F
CAPE HENRY VA    1600   83     350/  5/  5   N/A
WILLOUBY STN VA  1600   83     250/  4/  4   N/A
CAPE HENRY BUOY  1612      78                N/A     2/ 8
1ST LANDING BUOY 1600   83 82  300/  4/  6 1014.6S
CAPE CHARLES BUO 1626      72                N/A     2/ 9
OFFSHORE WE BUOY 1621      81                N/A     3/ 9
64NM E OF VA BCH 1650   81 80  230/ 14/ 16 1015.0S   3/ 4   2/ 9
DUCK PIER NC     1600   84 60  220/ 10/ 12 1015.1R
44100 DUCK FRF   1605      80                N/A     2/ 9
44056 DUCK FRF   1611      70                N/A     2/ 9
OREGON INLET NC  1600   84 83  200/ 15/ 16 1016.0R
HATTERAS NC      1600   86 82  210/ 10/ 13 1016.5R
DIAMOND SHLS NC  1650   84 86  220/ 12/ 14 1016.5F   2/ 8   2/ 8
CAPE LOOKOUT NC  1700   86     230/  8/ 10 1016.2F
$$



USA.gov is the U.S. government's official web portal to all federal, state and local government web resources and services.